[[{"header":{"parameterUnit":"m.s-1","parameterCategory":1,"la1":30.2991,"la2":30.254,"lo1":-89.0895,"lo2":-89.0444,"dy":0.0017,"dx":0.0017,"nx":28,"ny":28,"refTime":"2025-06-09T09:00:00:Z","depth":0,"parameterNumber":2,"parameterNumberName":"U-component_of_WINDS"},"data":[0,0,0,0,0,0,0,0,0,0,0,0,0,0,0,0,0,0,0,0,0,0,0,0,0,0,0,0,0,0,0,0,0,0,0,0,0,0,0,0,0,0,0,0,0,0,0,0,0,0,0,0,0,0,0,0,0,0,4.3514,4.3515,0,4.3654,4.3655,4.3657,4.3526,4.3521,4.3515,4.351,4.3661,4.3669,4.3678,0,0,0,0,0,0,0,0,0,0,0,0,0,4.3137,4.3145,4.3513,4.3515,4.3517,4.3654,4.3656,4.3657,4.3527,4.352,4.3514,4.3508,4.3658,4.3668,4.3679,0,0,0,0,0,0,0,0,0,0,0,0,0,4.3292,4.3147,4.3513,4.3468,4.3465,4.3653,4.3656,4.3658,4.3528,4.352,4.3512,4.3505,4.3654,4.3667,4.368,4.3922,0,0,4.3721,4.3727,0,0,0,0,0,0,0,0,4.3283,4.3306,4.3473,4.3472,4.3469,4.3564,4.3578,4.3747,4.353,4.3505,4.351,4.3501,4.3635,4.365,4.3694,4.3929,4.3935,4.3723,4.3731,4.3736,4.374,0,0,0,0,0,0,0,4.3273,4.3299,4.3569,4.3476,4.3473,4.3443,4.3456,4.3609,4.3613,4.3506,4.3497,4.3515,4.3633,4.3681,4.3696,4.3937,4.3722,4.3734,4.3742,4.3748,4.4377,4.4385,0,0,0,0,0,0,4.3266,4.3291,4.3565,4.3573,4.3354,4.3456,4.347,4.3542,4.3611,4.3614,4.3522,4.3508,4.3662,4.3681,4.3701,4.3987,4.3736,4.3749,4.3757,4.4368,4.4379,4.4388,0,0,0,0,0,0,4.3258,4.3292,4.3559,4.343,4.3461,4.3471,4.3552,4.3549,4.3597,4.3622,4.3623,4.357,4.3657,4.3682,4.3867,4.3991,4.3755,4.3767,4.4358,4.4371,4.4383,4.4562,0,0,0,0,0,0,4.3248,4.329,4.338,4.3433,4.3469,4.3722,4.3559,4.3557,4.3619,4.3603,4.3668,4.3671,4.3652,4.3848,4.3881,4.4005,4.3778,4.4347,4.4364,4.4379,4.4546,4.458,4.4609,0,0,0,0,0,4.3235,4.3427,4.3386,4.3419,4.3582,4.3729,4.375,4.3722,4.363,4.3722,4.3738,4.3669,4.3972,4.3868,4.3904,4.4034,4.4339,4.4359,4.4378,4.4531,4.4573,4.4609,0,0,0,0,0,0,4.3391,4.3433,4.3388,4.3601,4.3662,4.3706,4.3821,4.3768,4.3858,4.384,4.3804,4.382,4.4015,4.4043,4.3926,4.4271,4.4141,4.4168,4.4245,4.4285,4.4317,4.4306,4.3789,0,0,0,0,0,4.345,4.3564,4.3595,4.3781,4.3813,4.3813,4.3876,4.3849,4.3912,4.3938,4.3967,4.4033,4.4142,4.4215,4.4318,4.4549,4.4561,4.4656,4.4688,4.4714,4.4739,4.4863,4.4905,4.4452,4.4452,4.4452,0,0,4.3573,4.361,4.3685,4.3813,4.3857,4.3977,4.3835,4.3969,4.4058,4.3958,4.4134,4.4159,4.4229,4.4438,4.4532,4.4468,4.4866,4.4739,4.476,4.477,4.4887,4.493,4.4968,4.4466,4.4463,4.4461,0,0,4.3859,4.3899,4.4057,4.4104,4.4172,4.417,4.4208,4.426,4.4272,4.4447,4.4375,4.4482,4.4671,4.4724,4.4776,4.5082,4.5022,4.5116,4.5283,4.5405,4.544,4.5472,4.558,4.562,4.514,4.5141,4.5141,0,4.4005,4.4181,4.4146,4.4285,4.4343,4.4256,4.4417,4.4465,4.4564,4.4607,4.4533,4.4768,4.481,4.503,4.5104,4.5149,4.5192,4.5108,4.5438,4.5469,4.5498,4.5601,4.5642,4.5152,4.5151,4.515,4.5148,0,4.4356,4.448,4.4601,4.4696,4.4768,4.4918,4.4906,4.4984,4.4951,4.4958,4.5138,4.5184,4.5294,4.5344,4.5315,4.556,4.5518,4.5442,4.5311,4.5552,4.5649,4.5688,4.5168,4.5164,4.516,4.5158,0,0,4.4745,4.4817,4.4862,4.4904,4.4972,4.5068,4.5214,4.5319,4.5386,4.5458,4.558,4.5742,4.5671,4.573,4.5706,4.5813,4.6051,4.5723,4.5724,4.5782,4.6324,4.6381,4.6427,4.6012,4.6019,4.6025,4.6318,0,4.5033,4.5283,4.5256,4.5495,4.5609,4.5528,4.5655,4.5712,4.5722,4.5821,4.5833,4.5948,4.5846,4.5881,4.5983,4.6001,4.616,4.5979,4.6126,4.6131,4.611,4.6477,4.6538,4.6812,4.6356,4.6362,4.6367,0,4.5402,4.5484,4.5734,4.5784,4.5831,4.5945,4.6039,4.6135,4.6198,4.6197,4.6263,4.622,4.6368,4.6234,4.6437,4.6315,4.6374,4.6392,4.6401,4.6414,4.6263,4.6499,4.6899,4.694,4.6426,4.6421,4.6417,0,4.5659,4.5832,4.6004,4.6043,4.6105,4.6187,4.6218,4.6272,4.6337,4.642,4.6462,4.6562,4.6617,4.6696,4.6682,4.6586,4.689,4.6755,4.6895,4.6896,4.6962,4.6958,4.7376,4.7002,4.7001,4.7,4.6999,0,4.5983,4.614,4.612,4.6226,4.6399,4.6367,4.6539,4.656,4.6609,4.6718,4.6656,4.676,4.6735,4.6839,4.6829,4.6999,4.7025,4.703,4.7025,4.7035,4.7034,4.7072,4.7053,4.7011,4.7009,4.7007,4.7005,0,4.63,4.6293,4.6475,4.6519,4.6533,4.6659,4.6697,4.6797,4.6802,4.6941,4.6972,4.698,4.7099,4.7092,4.7229,4.7222,4.7431,4.7405,4.7409,4.7403,4.7543,4.753,4.8,4.806,4.7647,4.7651,4.7655,0,4.6506,4.6624,4.668,4.6747,4.6783,4.6893,4.6958,4.6931,4.7002,4.7081,4.7173,4.7285,4.7374,4.7569,4.7588,4.7692,4.7667,4.7824,4.7682,4.7688,4.7668,4.7661,4.7672,4.7852,4.7857,4.7861,4.7864,0,4.6874,4.6864,4.6959,4.7054,4.7133,4.7207,4.7274,4.7333,4.7313,4.7396,4.7516,4.7584,4.7722,4.7835,4.7933,4.7966,4.7913,4.7908,4.7946,4.7957,4.7954,4.7957,4.7485,4.7898,4.7894,4.7892,4.789,4.7889,4.7141,4.7242,4.7296,4.7404,4.7452,4.7516,4.7611,4.7627,4.7726,4.7833,4.7812,4.7947,4.8007,4.8133,4.8175,4.8281,4.8225,4.828,4.8294,4.8308,4.8323,4.7938,4.83,4.8298,4.8298,4.8297,4.8296,0,4.7505,4.7535,4.7635,4.7729,4.7815,4.7754,4.7826,4.7901,4.802,4.8079,4.8167,4.8305,4.8414,4.8441,4.8547,4.8626,4.8604,4.8655,4.8648,4.8657,4.8368,4.8324,4.8671,4.8671,4.867,4.867,4.867,4.867,4.7704,4.787,4.7868,4.8057,4.8087,4.8216,4.8262,4.8321,4.8368,4.8524,4.8613,4.8629,4.8676,4.8784,4.8882,4.8887,4.8929,4.8989,4.8985,4.8715,4.8677,4.8641,4.86,4.8999,4.8999,4.9265,4.9267,4.9269]},{"header":{"parameterUnit":"m.s-1","parameterCategory":1,"la1":30.2991,"la2":30.254,"lo1":-89.0895,"lo2":-89.0444,"dy":0.0017,"dx":0.0017,"nx":28,"ny":28,"refTime":"2025-06-09T09:00:00:Z","depth":0,"parameterNumber":3,"parameterNumberName":"V-component_of_WINDS"},"data":[0,0,0,0,0,0,0,0,0,0,0,0,0,0,0,0,0,0,0,0,0,0,0,0,0,0,0,0,0,0,0,0,0,0,0,0,0,0,0,0,0,0,0,0,0,0,0,0,0,0,0,0,0,0,0,0,0,0,1.8105,1.8107,0,1.8307,1.831,1.8312,1.8255,1.8251,1.8247,1.8243,1.846,1.847,1.8479,0,0,0,0,0,0,0,0,0,0,0,0,0,1.7676,1.7684,1.8104,1.8107,1.8109,1.8307,1.831,1.8312,1.8256,1.8251,1.8246,1.8241,1.8457,1.8469,1.848,0,0,0,0,0,0,0,0,0,0,0,0,0,1.7869,1.7687,1.8104,1.8105,1.8107,1.8306,1.831,1.8313,1.8257,1.8251,1.8245,1.8239,1.8454,1.8468,1.8482,1.8696,0,0,1.8526,1.8532,0,0,0,0,0,0,0,0,1.7858,1.7885,1.8102,1.8105,1.8108,1.8249,1.8238,1.8442,1.8259,1.82,1.8243,1.8236,1.8396,1.8415,1.8467,1.8706,1.8715,1.8527,1.8536,1.8542,1.8546,0,0,0,0,0,0,0,1.7845,1.7876,1.8185,1.8105,1.8109,1.8098,1.8118,1.8277,1.8331,1.8205,1.8201,1.8226,1.8396,1.8453,1.8471,1.8718,1.8527,1.854,1.8549,1.8554,1.9145,1.9151,0,0,0,0,0,0,1.7828,1.7865,1.8178,1.8191,1.7965,1.811,1.8133,1.821,1.8329,1.8341,1.8231,1.8222,1.8431,1.8455,1.8479,1.8739,1.8542,1.8556,1.8564,1.9138,1.9146,1.9154,0,0,0,0,0,0,1.7819,1.7857,1.817,1.8027,1.8066,1.8124,1.8211,1.8218,1.8274,1.8348,1.8358,1.8278,1.8427,1.8459,1.8642,1.8746,1.8562,1.8576,1.913,1.914,1.915,1.926,0,0,0,0,0,0,1.7807,1.7854,1.7934,1.8029,1.8074,1.8328,1.8218,1.8226,1.8298,1.8289,1.8395,1.8407,1.8425,1.8621,1.8656,1.8763,1.8587,1.9121,1.9134,1.9147,1.9248,1.9273,1.9295,0,0,0,0,0,1.7792,1.7959,1.7938,1.7977,1.8175,1.8334,1.836,1.8374,1.8307,1.8389,1.8437,1.8404,1.8727,1.864,1.868,1.8792,1.9114,1.913,1.9146,1.9237,1.9268,1.9295,0,0,0,0,0,0,1.7879,1.7972,1.795,1.8152,1.8235,1.8324,1.8429,1.8406,1.8513,1.8501,1.8516,1.854,1.8729,1.8778,1.8678,1.9005,1.8911,1.8936,1.8967,1.8998,1.9021,1.9008,1.8599,0,0,0,0,0,1.792,1.8039,1.8115,1.8286,1.8328,1.8371,1.8441,1.8444,1.8532,1.8568,1.8629,1.8719,1.884,1.8921,1.9037,1.9252,1.9277,1.9349,1.9373,1.9392,1.9415,1.9535,1.9569,1.9206,1.9205,1.9205,0,0,1.801,1.8075,1.815,1.8305,1.837,1.8495,1.8402,1.8538,1.8633,1.859,1.8767,1.8814,1.8915,1.9116,1.9208,1.9163,1.9519,1.9412,1.9427,1.9439,1.9555,1.9589,1.9619,1.9216,1.9214,1.9213,0,0,1.8238,1.8297,1.8448,1.8513,1.8611,1.8638,1.8674,1.8766,1.8795,1.8971,1.8942,1.9055,1.9264,1.9337,1.9402,1.9654,1.963,1.9692,1.9818,1.9935,1.9963,1.9989,2.0083,2.0116,1.9713,1.9713,1.9713,0,1.8339,1.8524,1.8528,1.8668,1.8738,1.87,1.8854,1.8918,1.905,1.9101,1.9047,1.9308,1.9373,1.9592,1.9653,1.9705,1.9749,1.9683,1.9958,1.9984,2.0008,2.0097,2.0132,1.972,1.9719,1.9719,1.9718,0,1.8644,1.8772,1.8882,1.9007,1.9089,1.9235,1.9264,1.9346,1.9341,1.9374,1.9556,1.9631,1.9763,1.9813,1.9811,2.0033,2.0002,1.9953,1.986,2.005,2.0134,2.0168,1.9731,1.9728,1.9726,1.9724,0,0,1.8938,1.906,1.9101,1.9158,1.9261,1.9362,1.9506,1.9631,1.9703,1.9794,1.9918,2.0094,2.0049,2.0122,2.0127,2.0229,2.0428,2.0168,2.017,2.0217,2.068,2.072,2.0759,2.0409,2.0415,2.042,2.0673,0,1.9178,1.9429,1.9436,1.9668,1.9788,1.9752,1.9878,1.9957,1.9991,2.01,2.0138,2.0264,2.0192,2.0237,2.0335,2.0382,2.0522,2.0364,2.0529,2.0535,2.051,2.0803,2.0846,2.1081,2.0706,2.0711,2.0715,0,1.9493,1.9591,1.9834,1.9919,1.997,2.0083,2.0198,2.0301,2.039,2.0407,2.0487,2.0477,2.0627,2.0523,2.0733,2.0625,2.0692,2.0725,2.0735,2.0755,2.0641,2.0836,2.1155,2.1193,2.0767,2.0763,2.0759,0,1.9689,1.9881,2.0051,2.01,2.0203,2.0283,2.0331,2.0412,2.0487,2.0587,2.0636,2.0754,2.082,2.0913,2.0935,2.0857,2.1145,2.1043,2.1168,2.1168,2.1235,2.1232,2.1575,2.127,2.127,2.1269,2.1268,0,1.9959,2.011,2.014,2.0246,2.0414,2.042,2.0587,2.0629,2.0701,2.0816,2.0791,2.09,2.092,2.1034,2.1052,2.1225,2.1254,2.1275,2.1279,2.1281,2.1279,2.1329,2.1315,2.1278,2.1276,2.1274,2.1273,0,2.0209,2.0234,2.0418,2.0498,2.0522,2.0643,2.0713,2.0816,2.0844,2.099,2.1025,2.1072,2.1205,2.1234,2.1393,2.1404,2.161,2.1596,2.158,2.1581,2.1705,2.1695,2.2097,2.2152,2.1807,2.181,2.1812,0,2.0383,2.0497,2.0589,2.0662,2.0712,2.0831,2.0906,2.0916,2.0995,2.1103,2.1194,2.1322,2.1426,2.164,2.1691,2.1812,2.1804,2.1936,2.1823,2.182,2.1811,2.1806,2.1819,2.196,2.1964,2.1967,2.1969,0,2.069,2.0696,2.0803,2.0914,2.1003,2.1092,2.1177,2.124,2.1261,2.1352,2.1485,2.1566,2.1725,2.1855,2.1976,2.2027,2.2005,2.2003,2.2039,2.2045,2.2032,2.2045,2.1645,2.1996,2.1993,2.1991,2.199,2.1989,2.091,2.1011,2.109,2.1211,2.1274,2.1354,2.1454,2.1493,2.1603,2.1732,2.1731,2.1878,2.1963,2.2123,2.2181,2.2298,2.2257,2.2309,2.2323,2.2337,2.235,2.2009,2.2319,2.2319,2.2318,2.2317,2.2317,0,2.122,2.1268,2.1378,2.1496,2.1591,2.1553,2.1645,2.1728,2.1857,2.1936,2.2038,2.2192,2.2316,2.2375,2.2499,2.2581,2.2574,2.2614,2.2611,2.2624,2.2377,2.2335,2.2618,2.2618,2.2618,2.2618,2.2618,2.2618,2.1392,2.1561,2.1576,2.1777,2.1824,2.1965,2.2021,2.2095,2.2159,2.233,2.2433,2.2468,2.254,2.2669,2.2783,2.2797,2.2846,2.2892,2.2902,2.2672,2.2641,2.2612,2.2573,2.2902,2.2902,2.314,2.3142,2.3144]}]]